Regional Weather Roundup
Issued by NWS Grand Forks, ND

Home | Current Version | Previous Version | Text Only | Print | Product List | Glossary On
Versions: 1 2 3 4 5 6 7 8 9 10 11 12 13 14 15 16 17 18 19 20 21 22 23 24 25 26 27 28 29 30 31 32 33 34 35 36 37 38 39 40 41 42 43 44 45 46 47 48 49 50
000
ASUS43 KFGF 050531
RWRFGF
PRAIRIE TO PINES  WEATHER ROUNDUP
NATIONAL WEATHER SERVICE EASTERN NORTH DAKOTA/GRAND FORKS ND
1100 PM CST SUN DEC 04 2016

 **SATELLITE DATA USED TO AUGMENT SKY COVER AT AUTOMATED STATIONS**
 *****  WEATHER ACROSS EASTERN NORTH DAKOTA  *****

CITY           SKY/WX    TMP DP  RH WIND       PRES   REMARKS
GRAND FORKS    CLOUDY    29  25  85 W12       29.68R WCI  19
GRAND FRKS AFB CLOUDY    27  24  88 NW8       29.68R WCI  19
GRAND FRKS NWS   N/A     28 N/A N/A NW3         N/A
DEVILS LAKE    FOG       23  22  96 W3        29.65S VSB 1/2
FARGO          CLEAR     27  23  85 W8        29.69S WCI  19
WAHPETON ARPT  CLEAR     30  27  86 SW3       29.72R
$$

 ***** WEATHER ACROSS CENTRAL AND WESTERN NORTH DAKOTA  *****

CITY           SKY/WX    TMP DP  RH WIND       PRES   REMARKS
BISMARCK       CLOUDY    16  15  96 NE8       29.63F WCI   5
MINOT          CLOUDY    17  14  88 E3        29.58F
JAMESTOWN      PTCLDY    20  17  88 S6        29.66R WCI  12
MINOT AFB      MOCLDY    12   9  85 E2        29.58F
GARRISON         N/A     21  19  92 CALM      29.59S
WILLISTON      CLOUDY    26  21  81 CALM      29.51F
DICKINSON      CLOUDY    29  22  75 S9        29.51F WCI  20
HETTINGER      MOCLDY    26  20  77 CALM      29.56S
$$

 *****  OTHER AIRPORT OBSERVATIONS IN OUR AREA  *****

CITY           SKY/WX    TMP DP  RH WIND       PRES   REMARKS
WALHALLA         N/A     28  28 100 NW7       29.66R WCI  21
GRAFTON AIRPOR CLOUDY    28  28 100 W8        29.69R WCI  20
VALLEY CITY AR FAIR      19  19 100 CALM      29.69R
CANDO          FOG       21  21 100 CALM      29.66F VSB 1/2
CAVALIER APRT    N/A     28  27  93 NW7       29.66R WCI  21
GWINNER          N/A     30  28  93 SW9       29.70R WCI  22
SHEYENNE NWR     N/A     22  19  89 SW3       29.95S
ROLLA          FOG       18  18 100 S3        29.63R VSB 1/4
 ***** THE ABOVE OBSERVATIONS ARE NON NWS ARE NOT QUALITY
       CONTROLLED AND MAY MIS-REPORT RAIN FOR SNOW...
$$

  *****  WEATHER ACROSS NORTHERN MINNESOTA  *****

CITY           SKY/WX    TMP DP  RH WIND       PRES   REMARKS
FLAG ISLAND    LGT SNOW  30  28  93 SW7       29.58R WCI  23
WARROAD        CLOUDY    30  27  86 W10       29.61R FOG     WCI  21
ROSEAU         CLOUDY    30  27  86 W8        29.62R WCI  23
HALLOCK        CLOUDY    30  28  93 W9        29.65R WCI  22
THF RVR FALLS  CLOUDY    28  27  93 W10       29.67R WCI  19
BAUDETTE       FLURRIES  30  27  88 SW5       29.61R
WASKISH        FLURRIES  30  28  93 W14       29.63R WCI  20
CROOKSTON      CLOUDY    28  27  93 W7        29.70R WCI  21
GREENBUSH NDAW   N/A     28  28 100 W8          N/A  WCI  20
$$
  *****  WEATHER ACROSS CENTRAL AND WEST MINNESOTA  *****

CITY           SKY/WX    TMP DP  RH WIND       PRES   REMARKS
FOSSTON        CLOUDY    27  25  93 W7        29.67S WCI  19
BEMIDJI        CLOUDY    29  26  88 W10       29.65R WCI  20
PARK RAPIDS    CLOUDY    31  25  78 W8        29.66R WCI  23
ELBOW LAKE     FAIR      27  27  99 CALM      29.72R
WADENA         CLEAR     28  27  93 SW6       29.68S WCI  22
DETROIT LAKES  CLOUDY    32  30  93 W7        29.68S
MOORHEAD       CLEAR     28  25  86 W6        29.71R WCI  22
FERGUS FALLS   CLEAR     27  27 100 SW5       29.75R WCI  21
MORRIS MN      CLEAR     27  27 100 S5        29.72S WCI  21
STAPLES        MOCLDY    30  28  93 SW5       29.69R
$$
  *****  WEATHER ELSEWHERE ACROSS MINNESOTA  *****

CITY           SKY/WX    TMP DP  RH WIND       PRES   REMARKS
DULUTH         FLURRIES  32  29  88 W14       29.64R WCI  22
INTRNTL FALLS  CLOUDY    30  27  88 W8        29.61R FOG     WCI  22
ELY            CLOUDY    30  28  93 CALM      29.60S
CLOQUET        CLOUDY    32  28  86 SW9       29.66R WCI  24
WHEATON        CLEAR    N/A N/A N/A S5        29.74R
BRAINERD       CLOUDY    33  28  81 W8        29.69S
HIBBING        CLOUDY    29  27  92 W5        29.63R WCI  24
ALEXANDRIA     CLEAR     27  27 100 SW7       29.71S WCI  19
SAINT CLOUD    PTCLDY    32  31  96 SW5       29.73S
MINNEAPOLIS    PTCLDY    34  28  79 SW7       29.78R
$$

  *****  WEATHER ACROSS SOUTH DAKOTA  *****

CITY           SKY/WX    TMP DP  RH WIND       PRES   REMARKS
SIOUX FALLS    PTCLDY    33  29  85 S5        29.77F
BROOKINGS      CLEAR     29  28  96 S9        29.74S WCI  20
WATERTOWN      CLEAR     27  25  92 S5        29.71F WCI  22
HURON          CLOUDY    30  27  88 S8        29.72S WCI  22
SISSETON         N/A     33  27  78 CALM      29.70S
ABERDEEN       CLEAR     25  23  92 S7        29.70S WCI  17
MITCHELL       PTCLDY    32  28  85 S9        29.75S WCI  24
PIERRE         MOCLDY    32  24  72 SE9       29.63F WCI  24
MOBRIDGE       CLOUDY    31  25  78 SE10      29.61S WCI  22
RAPID CITY     PTCLDY    34  18  52 SE6       29.53F
$$

  *****  SOME WEATHER IN NEARBY STATES *****

CITY           SKY/WX    TMP DP  RH WIND       PRES   REMARKS
GLASGOW MT     FOG       31  31 100 W5        29.49R VSB 1/2
GREAT FALLS MT CLOUDY    23  17  78 N15       29.69R WCI  10
CHEYENNE WY    CLOUDY    41  17  38 S14       29.68F
SCOTTSBLUFF NE CLOUDY    33  17  51 E7        29.66F
OMAHA NE       CLEAR     31  26  82 SE9       29.90S WCI  23
DES MOINES IA  CLEAR     33  31  92 SW5       29.93S
DAVENPORT IA   CLOUDY    34  31  88 W15       29.96R WCI  24
CHICAGO IL     CLOUDY    32  30  92 W13G21    29.91R FOG     WCI  22
EAU CLAIRE WI  CLOUDY    35  32  88 SW10      29.77R
LA CROSSE WI   CLOUDY    37  33  85 SW12      29.84R
$$

  *****  SOME NATIONAL WEATHER *****

CITY           SKY/WX    TMP DP  RH WIND       PRES   REMARKS
LA GUARDIA NY  CLOUDY    41  24  51 E8        30.13F
RALEIGH NC     LGT RAIN  42  41  96 SE3       30.08F FOG
ATLANTA GA     LGT RAIN  44  43  96 E10       30.04F
NEW ORLEANS LA CLOUDY    61  61 100 E9        29.90F
OKLAHOMA CITY  CLOUDY    34  32  92 S5        30.04R
ALBUQUERQUE NM CLOUDY    37  13  37 N9        30.06S
SALT LAKE CITY CLOUDY    43  22  43 CALM      29.80F
LOS ANGELES CA PTCLDY    57  55  93 CALM      30.00R
BOISE ID       MOCLDY    32  21  64 NW15      29.94R WCI  22
SEATTLE WA     CLOUDY    38  32  79 S12       30.11S
$$

*** WEATHER ACROSS MANITOBA...SASKATCHEWAN AND ONTARIO ***
                ***ONTARIO***

CITY           SKY/WX    TMP DP  RH WIND       PRES   REMARKS
GERALDTON      LGT SNOW  27  25  93 E8        29.69F WCI  18
THUNDER BAY    LGT SNOW  32  32 100 NE2       29.64F FOG
SIOUX LOOKOUT  FLURRIES  28  27  93 SE3       29.60S
TORONTO        LGT SNOW  34  32  93 E12G21    29.85F
BIG TROUT LK   CLOUDY    27  25  93 S8        29.71F WCI  18
PICKLE LAKE    NOT AVBL
DRYDEN         CLOUDY    30  28  93 SE6       29.57F WCI  24
KENORA         LGT SNOW  30  28  93 SW7       29.56S WCI  23
$$
                *** MANITOBA***

CITY           SKY/WX    TMP DP  RH WIND       PRES   REMARKS
BRANDON        FOG       23  23 100 CALM      29.62S VSB 1/2
DAUPHIN        CLOUDY    25  23  93 W7        29.62S WCI  17
ISLAND LAKE    NOT AVBL
PILOT MOUND      N/A     25  23  93 N8          N/A  WCI  16
THE PAS        CLOUDY    27  21  80 CALM      29.59S
THOMPSON       FLURRIES  25  23  93 VRB2      29.62S
WINNIPEG       MOCLDY    30  28  93 NW9       29.61R WCI  22
LYNN LAKE      LGT SNOW  25  25 100 E2        29.58R
CHURCHILL      MOCLDY    19  19 100 E3        29.78S
GILLAM         FLURRIES  19  18  93 E3        29.71S
$$
                ***SASKATCHEWAN***

CITY           SKY/WX    TMP DP  RH WIND       PRES   REMARKS
ESTEVAN        NOT AVBL
KINDERSLEY     PTCLDY    18  14  86 NW13G18   29.64R WCI   4
LLOYDMINSTER   LGT SNOW  12   7  79 NW18G29   29.69R WCI  -5
PRINCE ALBERT  MOCLDY    19  16  86 W3        29.57R
REGINA         CLOUDY    21  18  86 E8        29.54S WCI  12
YORKTON        FOG       19  18  93 S5        29.59R VSB 5/8 WCI  13
N. BATTLEFORD  FLURRIES  21  16  79 NW17      29.66R WCI   7
LA RONGE       CLOUDY    23  21  93 W5        29.55R WCI  17
SASKATOON      PTCLDY    12   9  85 W9        29.62R WCI   0
SWIFT CURRENT  CLOUDY    19  18  93 NW20      29.57R WCI   4
$$
NOTE: THESE ARE AUTOMATED STATIONS WITH LIMITED QUALITY CONTROL
      "FAIR" INDICATES FEW OR NO CLOUDS BELOW 12,000 FEET WITH NO
      SIGNIFICANT WEATHER AND/OR OBSTRUCTIONS TO VISIBILITY.
      SKY/WX - SKY CONDITION AND SIGNIFICANT WEATHER.
      TMP - AIR TEMPERATURE.    DP   - DEWPOINT TEMPERATURE.
      RH  - RELATIVE HUMIDITY.  PRES - PRESSURE.
      HX  - HEAT INDEX.         WCI  - WIND CHILL INDEX.
$




USA.gov is the U.S. government's official web portal to all federal, state and local government web resources and services.